Home   Weather   Paris   Past weeks
Flag for USA

Past Weather in Paris, Tennessee, USA — Yesterday and Last 2 Weeks

Now
66 °F

Sunny.


Feels Like: 66 °F
Forecast: 72 / 40 °F
Wind: 3 mph from South

Location: Mayfield Graves County Airport

Current Time: Oct 14, 2019 at 6:56:46 pm

Latest Report: Oct 14, 2019 at 6:15 pm


Visibility: 10 mi

Pressure: 30.07 "Hg

Humidity: 46%

Dew Point: 45 °F

Location of ParisLocation

Past Weather in Paris — Graph

°F

Paris Temperature Yesterday

Maximum temperature yesterday: 68 °F (at 2:15 pm)
Minimum temperature yesterday: 36 °F (at 4:15 am)
Average temperature yesterday: 52 °F

High & Low Weather Summary for the Past Weeks

 TemperatureHumidityPressure
High95 °F (Oct 2, 1:55 pm)100% (Oct 6, 9:35 pm)30.26 "Hg (Oct 6, 9:35 pm)
Low36 °F (Oct 13, 4:15 am)22% (Oct 5, 3:55 pm)29.94 "Hg (Oct 11, 3:15 am)
Average68 °F69%30.08 "Hg
* Reported Sep 29 5:15 pm — Oct 14 5:35 pm, Paris. Weather by CustomWeather, © 2019

Note: Actual official high and low records may vary slightly from our data, if they occured in-between our weather recording intervals... More about our weather records

Advertising

Paris Weather History for the Previous 24 Hours

Scroll right to see more
 ConditionsComfort  
Time TempWeatherWind HumidityBarometerVisibility
5:35 pm
Mon, Oct 14
72 °FSunny.No wind33%30.06 "Hg10 mi
5:15 pm73 °FSunny.No wind31%30.06 "Hg10 mi
4:55 pm73 °FSunny.3 mph29%30.06 "Hg10 mi
4:35 pm75 °FSunny.No wind29%30.06 "Hg10 mi
4:15 pm75 °FSunny.No wind29%30.07 "Hg10 mi
3:55 pm75 °FSunny.3 mph29%30.06 "Hg10 mi
3:35 pm73 °FSunny.No wind31%30.07 "Hg10 mi
3:15 pm73 °FSunny.No wind31%30.06 "Hg10 mi
2:55 pm73 °FSunny.No wind31%30.07 "Hg10 mi
2:35 pm73 °FSunny.3 mph31%30.07 "Hg10 mi
2:15 pm73 °FSunny.5 mph33%30.08 "Hg10 mi
1:55 pm73 °FSunny.5 mph33%30.09 "Hg10 mi
1:35 pm72 °FSunny.No wind38%30.10 "Hg10 mi
1:15 pm70 °FSunny.No wind40%30.11 "Hg10 mi
12:55 pm70 °FSunny.3 mph40%30.12 "Hg10 mi
12:15 pm70 °FSunny.No wind43%30.14 "Hg10 mi
11:55 am68 °FSunny.No wind46%30.14 "Hg10 mi
11:35 am66 °FSunny.No wind49%30.13 "Hg10 mi
11:15 am64 °FSunny.No wind49%30.14 "Hg10 mi
10:55 am63 °FSunny.No wind56%30.14 "Hg10 mi
10:35 am63 °FSunny.No wind59%30.15 "Hg10 mi
10:15 am59 °FSunny.No wind68%30.14 "Hg10 mi
9:35 am55 °FSunny.3 mph77%30.16 "Hg10 mi
8:55 am50 °FSunny.3 mph88%30.15 "Hg10 mi
8:35 am50 °FSunny.6 mph88%30.14 "Hg10 mi
8:15 am46 °FSunny.7 mph93%30.13 "Hg10 mi
7:55 am45 °FSunny.3 mph93%30.13 "Hg10 mi
7:35 am43 °FSunny.3 mph100%30.12 "Hg10 mi
7:15 am43 °FSunny.3 mph93%30.11 "Hg10 mi
6:35 am45 °FClear.No wind93%30.11 "Hg10 mi
6:15 am45 °FClear.3 mph93%30.11 "Hg10 mi
5:55 am45 °FClear.5 mph93%30.10 "Hg10 mi
5:35 am45 °FClear.6 mph93%30.09 "Hg10 mi
5:15 am46 °FClear.5 mph87%30.09 "Hg10 mi
4:55 am46 °FClear.6 mph82%30.08 "Hg10 mi
4:35 am46 °FClear.7 mph82%30.08 "Hg10 mi
4:15 am46 °FClear.6 mph82%30.07 "Hg10 mi
3:55 am46 °FClear.6 mph82%30.07 "Hg10 mi
3:35 am48 °FClear.7 mph76%30.07 "Hg10 mi
3:15 am46 °FClear.7 mph76%30.06 "Hg10 mi
2:35 am46 °FClear.7 mph76%30.06 "Hg10 mi
2:15 am48 °FClear.6 mph71%30.06 "Hg10 mi
1:55 am48 °FClear.6 mph71%30.06 "Hg10 mi
1:35 am50 °FClear.6 mph67%30.07 "Hg10 mi
1:15 am48 °FClear.6 mph71%30.06 "Hg10 mi
12:55 am48 °FClear.6 mph71%30.06 "Hg10 mi
12:35 am48 °FClear.5 mph66%30.06 "Hg10 mi
12:15 am50 °FClear.5 mph67%30.06 "Hg10 mi
11:55 pm
Sun, Oct 13
50 °FClear.5 mph67%30.06 "Hg10 mi
11:35 pm50 °FClear.6 mph62%30.05 "Hg10 mi
11:15 pm50 °FClear.5 mph62%30.06 "Hg10 mi
10:55 pm50 °FClear.6 mph67%30.05 "Hg10 mi
10:35 pm50 °FClear.5 mph67%30.06 "Hg10 mi
10:15 pm52 °FClear.5 mph62%30.05 "Hg10 mi
9:55 pm52 °FClear.5 mph62%30.05 "Hg10 mi
9:35 pm52 °FClear.3 mph58%30.05 "Hg10 mi
9:15 pm52 °FClear.5 mph58%30.04 "Hg10 mi
8:35 pm54 °FClear.5 mph54%30.04 "Hg10 mi
8:15 pm54 °FClear.3 mph54%30.03 "Hg10 mi
7:55 pm54 °FClear.6 mph54%30.02 "Hg10 mi
7:35 pm55 °FClear.5 mph51%30.02 "Hg10 mi
7:15 pm55 °FClear.5 mph55%30.01 "Hg10 mi
6:55 pm57 °FClear.5 mph48%30.01 "Hg10 mi
6:35 pm59 °FClear.3 mph42%30.00 "Hg10 mi
6:15 pm63 °FSunny.5 mph37%30.00 "Hg10 mi
Weather by CustomWeather, © 2019

See weather overview